Regional Weather Roundup
Issued by NWS Cleveland, OH

Home | Current Version | Previous Version | Graphics & Text | Print | Product List | Glossary On
Versions: 1 2 3 4 5 6 7 8 9 10 11 12 13 14 15 16 17 18 19 20 21 22 23 24 25 26 27 28 29 30 31 32 33 34 35 36 37 38 39 40 41 42 43 44 45 46 47 48 49 50
000
ASUS41 KCLE 251000
RWRCLE
OHIO REGIONAL WEATHER ROUNDUP
NATIONAL WEATHER SERVICE WILMINGTON, OH
500 AM EST SUN JAN 25 2015

NOTE: "FAIR" INDICATES FEW OR NO CLOUDS BELOW 12,000 FEET WITH NO
SIGNIFICANT WEATHER AND/OR OBSTRUCTIONS TO VISIBILITY.

OHZ001>008-015>018-024>027-034-035-043-044-251100-
   NORTHWEST OHIO

CITY           SKY/WX    TMP DP  RH WIND       PRES   REMARKS
DEFIANCE       CLOUDY    36  33  89 CALM      29.71S
FINDLAY        CLOUDY    36  31  82 CALM      29.70F
TOLEDO EXPRESS CLOUDY    34  32  92 CALM      29.71S
TOLEDO EXEC    CLOUDY    35  31  85 CALM      29.73R
LIMA           CLOUDY    36  30  79 S8        29.70S
$$

OHZ009>014-019>023-028>033-038-089-251100-
   NORTHEAST OHIO

CITY           SKY/WX    TMP DP  RH WIND       PRES   REMARKS
CLE-HOPKINS    LGT SNOW  33  31  92 SW5       29.76R FOG     WCI  29
CLE-LAKEFRONT  LGT SNOW  34  32  92 SW6       29.73R FOG     WCI  29
CUY CO. ARPT   NOT AVBL
LORAIN-ELYRIA  CLOUDY    34  32  92 W5        29.73R WCI  30
ASHTABULA      FRZ RAIN  32  30  92 N8        29.74R FOG     WCI  25
AKRON-CANTON   LGT SNOW  34  30  85 SW8       29.72S FOG     WCI  27
WOOSTER        NOT AVBL
MANSFIELD      CLOUDY    34  32  92 SW5       29.72R WCI  30
YOUNGSTOWN     LGT SNOW  33  31  92 SW6       29.71S FOG     WCI  28
$$

OHZ042-051>053-060>062-070>072-077>081-251100-
  SOUTHWEST OHIO

CITY           SKY/WX    TMP DP  RH WIND       PRES   REMARKS
CINC-COVINGTON CLOUDY    36  30  79 S9        29.73F
CINC-LUNKEN    CLOUDY    30  28  92 SW5       29.77F FOG     WCI  25
HAMILTON       CLOUDY    33  30  88 E3        29.75F
DAYTON         NOT AVBL
WRIGHT-PAT AFB NOT AVBL
DAYTON GENERAL MOCLDY    32  29  88 S8        29.72F WCI  25
WILMINGTON     MOCLDY    31  27  85 S8        29.74S FOG     WCI  23
$$

OHZ036-037-039>041-045>050-054>059-063>069-073>076-082>088-251100-
  CENTRAL AND SOUTHEAST OHIO

CITY           SKY/WX    TMP DP  RH WIND       PRES   REMARKS
COLUMBUS       CLOUDY    34  29  82 S6        29.75S WCI  29
OSU AIRPORT    CLOUDY    35  30  82 S6        29.74S
BOLTON FIELD   NOT AVBL
RICKENBACK AFB NOT AVBL
NEWARK         CLOUDY    36  30  79 S7        29.75R
MARION         CLOUDY    34  30  85 S8        29.72S WCI  27
LANCASTER      CLOUDY    36  31  82 S8        29.75F
ZANESVILLE     CLOUDY    33  29  85 S7        29.76S FOG     WCI  27
NEW PHILLY     CLOUDY    35  30  82 S3        29.76S
$$



USA.gov is the U.S. government's official web portal to all federal, state and local government web resources and services.